Location: Unnamed
(40.4914°N, 3.3751°W)
Time: 17:32:46
(UTC+02:00)

ISS - Visible Passes

Search period start: 23 September 2023 00:00
Search period end: 03 October 2023 00:00
Orbit: 414 x 422 km, 51.6° (Epoch: 23 September)

Date Brightness Start Highest point End Pass type
(mag) Time Alt. Az. Time Alt. Az. Time Alt. Az.
23 Sep -1.1 20:50:20 10° NW 20:51:58 13° N 20:53:38 10° NNE visible
23 Sep -0.9 22:27:43 10° NNW 22:28:36 13° N 22:28:36 13° N visible
24 Sep -1.3 21:39:48 10° NNW 21:41:34 13° N 21:42:23 13° NNE visible
25 Sep -1.2 20:51:45 10° NNW 20:53:15 12° N 20:54:46 10° NNE visible
25 Sep -0.9 22:28:08 10° NNW 22:29:03 15° NNW 22:29:03 15° NNW visible
26 Sep -1.8 21:40:14 10° NNW 21:42:41 19° NNE 21:42:47 19° NNE visible
27 Sep -1.5 20:52:18 10° NNW 20:54:23 15° NNE 20:56:27 10° NE visible
27 Sep -1.0 22:28:28 10° NW 22:29:27 18° NW 22:29:27 18° NW visible
28 Sep -2.6 21:40:28 10° NW 21:43:12 32° NNE 21:43:12 32° NNE visible
29 Sep -2.2 20:52:27 10° NNW 20:55:14 23° NNE 20:56:59 16° ENE visible
29 Sep -0.9 22:28:54 10° WNW 22:29:54 18° WNW 22:29:54 18° WNW visible
30 Sep -3.7 21:40:40 10° NW 21:43:44 71° NNW 21:43:44 71° NNW visible
01 Oct -3.4 20:52:31 10° NW 20:55:47 48° NNE 20:57:37 22° E visible
01 Oct -0.6 22:29:51 10° W 22:30:32 13° W 22:30:32 13° W visible
02 Oct -2.4 21:41:07 10° WNW 21:44:10 33° SW 21:44:30 32° SSW visible
